This demonstration page uses our WeatherBlox Daily Observations layout. Learn more.

Left ArrowRight Arrow

36.17497, -115.13722

Hourly Observations for December 5, 2020

Temp ( °F °C ) Dew Point ( °F °C ) Humidity (%) Winds ( mph kmh ) Pressure ( in mb ) Visibility ( mi km ) Precip ( " mm )
12:53 am 00:53 Clear 40 4.4 5 -15 23 23 WNW 9 15 30.31 1027 10 16.0934 0 0
1:53 am 01:53 Clear 39 3.9 1 -17.2 20 20 W 6 9 30.32 1027 10 16.0934 0 0
2:53 am 02:53 Clear 39 3.9 5 -15 24 24 Calm 30.33 1027 10 16.0934 0 0
3:53 am 03:53 Clear 37 2.8 5 -15 26 26 WNW 8 13 30.33 1027 10 16.0934 0 0
4:53 am 04:53 Clear 38 3.3 5 -15 25 25 WNW 5 7 30.34 1027 10 16.0934 0 0
5:53 am 05:53 Clear 36 2.2 6 -14.4 28 28 WNW 5 7 30.37 1028 10 16.0934 0 0
6:53 am 06:53 Sunny 35 1.7 7 -13.9 31 31 NW 5 7 30.39 1029 10 16.0934 0 0
7:53 am 07:53 Sunny 41 5 5 -15 22 22 Calm 30.4 1030 10 16.0934 0 0
8:53 am 08:53 Sunny 48 8.9 4 -15.6 16 16 Calm 30.41 1030 10 16.0934 0 0
9:53 am 09:53 Sunny 55 12.8 -1 -18.3 10 10 Calm 30.4 1030 10 16.0934 0 0
10:53 am 10:53 Sunny 57 13.9 -1 -18.3 9 9 Calm 30.38 1029 10 16.0934 0 0
11:53 am 11:53 Sunny 61 16.1 -1 -18.3 8 8 Calm 30.35 1028 10 16.0934 0 0
12:53 pm 12:53 Sunny 61 16.1 -1 -18.3 8 8 SSE 3 6 30.32 1027 10 16.0934 0 0
1:53 pm 13:53 Sunny 62 16.7 -2 -18.9 7 7 ESE 3 6 30.31 1027 10 16.0934 0 0
2:53 pm 14:53 Sunny 63 17.2 -1 -18.3 7 7 S 3 6 30.31 1027 10 16.0934 0 0
3:53 pm 15:53 Sunny 63 17.2 -1 -18.3 7 7 Calm 30.31 1026 10 16.0934 0 0
4:53 pm 16:53 Clear 59 15 -1 -18.3 8 8 Calm 30.32 1027 10 16.0934 0 0
5:53 pm 17:53 Clear 52 11.1 7 -13.9 16 16 Calm 30.33 1027 10 16.0934 0 0
6:53 pm 18:53 Clear 50 10 10 -12.2 20 20 W 6 9 30.34 1027 10 16.0934 0 0
7:53 pm 19:53 Clear 46 7.8 8 -13.3 21 21 WNW 5 7 30.34 1027 10 16.0934 0 0
8:53 pm 20:53 Clear 45 7.2 9 -12.8 23 23 NW 3 6 30.34 1027 10 16.0934 0 0
9:53 pm 21:53 Clear 45 7.2 11 -11.7 25 25 Calm 30.33 1027 10 16.0934 0 0
10:53 pm 22:53 Clear 42 5.6 10 -12.2 27 27 NNW 6 9 30.33 1027 10 16.0934 0 0
11:53 pm 23:53 Clear 41 5 9 -12.8 27 27 NW 5 7 30.32 1027 10 16.0934 0 0

Powered by AerisWeather